Temperature
16 16 17 17 14 11 13 13 13 13 13 13 13 13 13 12 13 13 13 13 13 13 13 13 13 13 14 14 14 14 14 14 14 14 14 14 14 14 14 14 14 14 14 15 15 15 15 15 15
16 16 17 16 12 12 13 13 13 13 13 13 13 13 12 12 12 12 12 13 13 13 13 13 13 13 13 14 14 14 14 14 14 14 14 14 14 14 14 14 14 14 14 14 14 14 15 15 15
16 16 16 11 11 12 14 13 12 12 13 13 12 12 12 12 12 12 12 12 13 13 13 13 13 13 13 13 13 14 14 14 14 14 14 14 14 14 14 14 14 14 14 14 14 14 14 15 15
16 16 14 11 12 12 12 13 12 12 13 13 12 11 11 11 12 12 12 12 12 12 13 13 13 13 13 13 13 13 13 13 14 14 14 14 14 14 14 14 14 14 14 14 14 14 14 14 14
15 15 11 10 11 11 11 12 12 12 11 12 12 11 11 11 11 12 12 12 12 12 12 12 12 13 13 13 13 13 13 13 13 13 13 13 13 14 14 13 13 14 14 14 14 14 14 14 14
15 11 10 10 11 11 11 12 12 11 11 11 11 10 11 11 11 12 12 12 12 12 12 12 12 12 12 12 13 13 13 13 13 13 13 13 13 13 13 13 13 13 13 13 14 14 14 14 14
13 9 10 10 11 11 12 12 11 10 10 11 11 10 10 11 11 11 11 11 11 12 12 12 12 12 12 12 12 12 12 12 13 13 13 13 13 13 13 13 13 13 13 13 13 13 13 13 13
14 9 10 10 10 11 11 12 11 11 10 11 11 10 10 10 11 11 11 11 11 11 11 11 11 12 12 12 12 12 12 12 12 12 12 12 13 13 13 13 13 13 13 13 13 13 13 13 13
13 9 9 10 10 11 11 10 10 10 10 10 10 10 10 10 10 11 11 11 11 11 11 11 11 11 11 11 11 11 12 12 12 12 12 12 12 12 12 12 12 12 12 12 12 12 12 12 12
11 9 10 10 10 10 10 10 10 10 9 9 9 10 10 10 10 10 10 10 10 10 10 11 11 11 11 11 11 11 11 11 11 11 11 11 11 12 12 12 12 12 12 12 12 12 12 12 12
9 9 9 10 10 10 10 9 10 9 8 9 9 9 9 9 10 10 10 10 10 10 10 10 10 10 10 10 10 10 11 11 11 11 11 11 11 11 11 11 11 11 11 12 12 12 12 12 11
8 8 9 9 10 10 9 9 8 8 9 9 9 9 9 9 9 9 9 9 9 9 9 9 9 10 10 10 10 10 10 10 10 10 10 10 10 10 10 10 10 11 11 11 11 11 11 11 11
8 8 8 9 9 9 8 8 8 8 8 9 9 9 9 8 8 8 9 8 9 9 9 9 9 9 9 9 9 9 9 9 9 10 10 10 10 10 10 10 10 10 10 10 10 10 10 10 10
8 8 8 8 9 8 7 7 7 7 8 8 8 8 8 8 8 8 8 8 8 8 8 8 9 9 9 9 9 9 9 9 9 9 9 9 9 9 9 9 9 9 9 9 9 9 9 10 10
8 7 7 8 8 8 8 7 6 7 7 7 7 7 7 7 7 7 7 7 7 8 8 8 8 8 8 8 8 8 8 8 8 8 8 8 8 8 8 8 8 8 8 8 8 8 9 9 9
7 7 7 7 7 7 8 7 6 6 6 6 6 7 7 6 7 7 7 7 7 7 7 7 7 7 7 7 7 8 8 8 8 8 7 7 7 7 8 8 8 8 8 8 8 8 8 8 8
6 6 7 7 7 7 7 6 5 6 6 5 6 6 6 6 6 6 6 6 6 6 6 7 7 7 7 7 7 7 7 7 7 7 7 7 7 7 7 7 7 7 7 7 7 7 7 7 8
6 6 6 6 6 6 5 5 5 5 5 5 5 5 5 5 6 6 6 6 6 6 6 6 6 6 6 6 6 6 6 6 6 6 6 6 6 6 6 6 6 6 6 6 6 6 6 7 7
6 6 6 6 6 6 5 4 4 4 4 4 4 4 5 5 5 5 5 5 5 5 5 5 5 5 5 5 6 6 6 5 5 5 5 5 5 5 5 5 5 5 5 6 6 6 6 6 6
6 5 5 5 5 5 4 4 4 4 4 4 4 4 4 5 5 5 4 4 5 5 5 5 5 5 5 5 5 5 5 5 5 5 5 5 5 5 4 5 5 5 5 5 5 5 5 5 5
5 5 5 5 5 4 4 4 3 3 4 4 4 4 4 4 4 4 4 4 4 4 4 4 4 4 4 4 4 4 4 4 4 4 4 4 4 4 4 4 4 4 4 4 4 4 4 4 5
5 5 5 5 4 3 4 3 3 3 2 3 3 3 4 4 4 4 4 4 4 4 4 4 4 3 3 3 3 3 3 3 3 3 3 3 3 3 3 3 3 3 3 3 4 4 4 4 4
4 4 4 4 3 3 2 2 3 2 3 3 3 3 3 3 3 3 3 3 3 3 3 3 3 3 3 3 3 3 3 3 3 2 2 3 3 3 3 3 3 3 3 3 3 3 3 3 3
4 3 3 2 2 3 2 2 3 2 3 3 2 3 3 3 3 3 3 3 3 3 3 3 3 3 2 2 2 2 2 2 2 2 2 2 2 2 2 2 2 2 2 2 2 2 2 3 3
3 3 2 3 1 2 2 2 2 2 2 2 2 2 3 3 3 3 2 2 2 2 2 2 2 2 2 2 2 2 2 2 2 2 1 2 2 2 2 2 2 2 2 2 2 2 2 2 2
3 3 3 3 2 2 1 1 2 2 2 2 2 2 2 2 2 2 2 2 2 2 2 1 1 1 1 1 1 1 1 1 1 1 1 1 1 1 1 1 1 1 1 1 2 2 2 2 2
2 2 2 1 0 1 1 1 1 1 1 1 1 1 2 2 2 2 2 1 1 1 1 1 1 1 1 1 1 1 1 1 1 1 1 1 1 1 1 1 1 1 1 1 1 1 1 1 1
3 1 0 1 2 2 2 1 2 2 1 0 -0 0 1 1 1 1 1 1 1 1 0 0 0 0 0 0 0 0 0 0 0 -0 -0 0 0 0 0 0 0 0 1 1 1 1 1 1 1
2 1 1 -0 0 1 1 3 2 1 1 -0 -0 0 1 1 1 1 1 0 0 0 0 0 -0 -0 -0 -0 -0 -1 -1 -0 -0 -0 -0 -0 -0 -0 -0 -0 -0 -0 0 0 0 0 0 0 0
1 1 0 1 0 -1 0 2 2 0 0 0 0 1 1 1 1 0 0 0 -0 -0 -0 -0 -1 -1 -1 -1 -1 -1 -1 -1 -1 -1 -1 -1 -1 -1 -0 -0 -0 -0 -0 -0 -0 -0 -0 -0 0
Wind_Speed
8 4 3 4 6 5 1 3 1 1 1 1 1 2 4 3 2 2 1 2 3 3 3 4 6 7 7 7 7 8 9 9 9 9 9 9 9 9 9 9 8 8 8 7 7 7 7 7 7
3 3 5 5 5 2 4 3 2 2 2 1 3 3 4 2 2 2 2 3 3 4 5 5 7 7 8 8 8 9 9 9 9 9 9 9 9 10 9 9 8 8 8 8 7 7 7 7 7
2 5 5 5 4 5 4 2 3 1 1 1 2 3 2 2 2 1 2 2 4 6 6 6 7 7 8 8 8 9 9 9 9 9 9 9 10 10 10 9 8 8 8 8 8 7 7 7 7
4 5 5 5 2 3 3 2 2 2 3 4 3 3 2 3 2 1 2 3 5 5 6 6 7 7 8 8 9 9 9 9 9 9 9 9 10 10 10 9 9 8 8 8 8 8 8 7 7
4 5 4 2 2 2 1 1 1 1 1 2 2 2 1 3 3 4 3 4 5 4 6 6 7 8 8 8 8 9 9 9 9 9 9 9 10 10 10 9 9 8 8 8 8 8 7 7 7
5 5 4 3 3 2 1 1 1 1 1 2 2 2 0 2 4 3 4 4 4 5 6 7 7 7 7 8 8 8 8 9 9 9 9 9 9 10 10 9 9 8 8 8 8 7 7 7 6
5 4 4 5 3 2 1 1 2 2 1 1 1 2 1 2 3 3 4 5 6 6 7 8 7 6 7 8 8 9 8 8 9 9 9 9 9 9 9 9 9 8 8 8 7 7 6 6 6
5 5 3 3 4 3 1 1 2 2 1 1 2 3 1 1 2 4 5 5 5 6 7 7 8 8 7 7 8 9 9 9 9 9 10 10 10 9 9 9 8 8 7 7 7 7 6 6 6
4 3 4 5 5 3 1 2 2 2 3 2 2 1 0 3 4 5 4 4 4 5 5 6 7 7 7 6 7 8 8 9 9 9 10 10 9 9 9 9 9 8 8 7 7 7 6 6 6
4 3 4 2 3 2 1 1 1 2 2 1 2 2 3 4 4 4 3 2 2 3 3 4 5 6 6 6 6 7 7 8 9 9 8 8 8 8 8 9 9 9 9 9 8 7 7 6 5
3 3 2 1 1 2 1 0 0 3 0 2 2 1 2 3 3 3 2 2 1 2 3 3 4 6 6 5 6 6 6 7 8 9 8 7 8 8 8 8 8 8 8 8 7 7 7 6 6
2 1 0 1 1 1 1 1 1 0 2 1 2 3 3 3 2 2 2 2 2 3 3 3 4 5 5 5 5 5 5 6 6 7 8 7 6 6 6 5 6 6 6 6 6 5 6 6 6
1 0 2 2 4 2 2 1 1 1 1 2 4 4 4 3 2 2 2 2 3 3 3 3 4 4 4 5 5 5 5 5 6 6 7 7 5 4 4 4 5 5 5 5 4 4 4 4 5
2 2 1 2 2 2 2 1 1 2 1 3 4 3 2 2 2 2 3 3 3 3 3 3 4 5 5 4 4 5 5 5 6 6 7 6 5 4 3 3 4 4 4 4 3 3 3 3 3
2 3 4 3 1 0 2 2 2 1 2 2 1 1 1 1 2 2 1 1 2 2 3 3 3 5 5 5 5 5 5 6 6 6 7 8 7 5 4 3 3 4 4 4 3 3 3 3 3
3 3 1 3 1 1 2 4 2 1 2 1 1 1 1 1 1 1 2 2 2 3 3 3 4 4 4 4 5 5 5 6 6 6 7 7 7 6 4 3 3 4 4 3 2 2 2 3 3
3 0 3 3 1 1 1 5 3 1 2 3 2 2 1 0 1 1 2 2 2 2 2 3 3 3 3 4 4 4 5 5 5 6 6 7 7 7 5 3 3 4 3 3 2 2 2 2 3
3 2 3 3 2 1 2 6 4 3 3 4 3 2 1 1 1 1 1 2 2 2 2 2 3 3 3 3 3 3 3 4 5 5 6 6 6 7 6 4 4 4 2 2 2 2 2 1 2
3 3 3 4 2 1 5 7 6 4 3 3 3 3 3 2 1 1 1 2 2 3 3 2 3 3 2 2 2 1 2 2 2 4 5 6 6 7 5 4 4 3 2 2 2 1 2 2 2
2 2 3 3 2 1 4 7 6 4 4 4 5 5 3 1 1 1 1 1 2 2 2 2 3 2 2 1 1 0 1 1 1 4 5 6 6 6 5 4 2 2 2 3 3 2 1 2 2
1 4 4 4 4 2 3 6 4 3 2 2 3 3 3 3 2 1 1 1 1 2 2 2 2 2 2 2 1 2 2 2 2 3 3 5 5 5 5 4 4 3 2 1 2 2 1 1 2
3 3 3 3 2 3 1 5 6 3 3 3 4 3 3 2 1 1 1 1 1 1 1 1 2 2 2 1 1 1 1 1 2 3 3 4 5 5 5 4 4 3 2 1 1 1 1 1 1
2 1 1 1 1 2 1 3 7 2 4 5 5 4 3 2 2 2 2 2 1 1 1 1 1 2 2 2 1 1 1 1 2 2 3 3 4 4 4 4 3 2 2 1 2 2 2 1 1
2 3 3 3 2 4 4 4 7 4 6 4 3 4 3 3 2 2 2 0 1 2 2 1 1 2 2 2 1 1 1 2 3 3 3 3 3 3 4 4 3 2 2 2 2 2 2 1 1
3 3 3 4 3 6 2 4 8 6 4 4 4 4 3 3 2 2 1 1 2 2 2 2 2 2 2 2 2 2 2 2 2 3 3 3 3 3 3 4 3 2 2 2 2 1 2 1 1
2 5 5 4 5 5 2 6 7 3 2 2 2 2 2 2 2 2 2 1 1 2 2 2 2 2 2 2 3 2 2 2 2 3 3 3 3 3 4 4 3 3 3 2 1 2 2 1 1
4 3 3 4 0 3 6 6 7 2 2 1 1 1 2 2 2 2 2 1 1 2 2 2 2 2 3 3 3 3 3 2 3 3 3 3 3 4 4 4 3 3 3 2 2 2 2 2 2
2 6 4 3 2 4 6 5 5 5 5 3 2 3 3 2 2 2 2 2 2 2 2 2 1 2 2 2 3 3 3 3 3 3 4 4 4 4 4 4 4 3 3 2 2 2 3 2 2
3 2 3 3 3 3 4 7 4 5 4 5 5 5 4 3 3 3 2 2 2 2 2 2 2 2 3 3 3 3 3 3 3 3 4 4 4 4 4 4 4 4 3 3 2 2 2 2 2
3 5 5 3 4 4 3 7 3 3 3 3 4 4 3 3 2 2 2 1 1 2 2 3 3 3 3 3 3 3 4 3 3 4 4 4 4 4 4 4 4 4 3 3 2 3 2 3 3
Wind_Direction
347 4 63 55 57 56 202 248 224 314 339 343 28 89 116 115 133 162 353 18 32 30 27 58 63 62 60 60 65 65 62 61 59 57 55 54 54 52 53 54 55 58 62 65 69 77 83 86 87
347 27 54 60 93 121 257 241 214 227 185 75 41 59 68 54 30 46 4 352 35 51 47 58 64 63 60 63 65 63 60 59 60 60 55 52 51 50 52 53 52 56 59 58 61 68 75 80 87
25 48 78 79 120 177 211 210 199 356 33 67 56 44 69 18 11 359 331 11 53 51 49 58 67 65 63 66 63 60 57 58 61 60 55 52 50 50 51 49 49 52 56 57 58 61 65 70 77
66 49 58 82 176 219 206 206 154 88 26 42 81 40 18 12 339 337 36 60 73 53 50 60 68 67 65 64 62 59 57 59 61 60 55 52 50 49 49 48 49 50 53 53 54 57 59 62 66
57 77 74 74 229 249 254 255 153 98 9 23 73 76 345 2 29 65 74 72 84 60 50 60 63 63 64 64 61 58 59 61 61 59 56 52 49 46 45 44 43 49 52 50 50 54 57 57 58
58 72 107 195 224 255 284 292 109 63 36 20 81 109 223 20 47 59 67 61 67 63 49 56 59 57 57 58 59 57 60 61 58 57 55 52 48 43 40 38 37 42 49 50 47 48 52 52 50
106 105 157 180 197 252 226 64 108 112 57 332 125 119 309 18 44 63 65 60 56 54 50 44 44 50 51 53 58 55 56 59 57 54 51 48 46 43 38 36 35 37 44 45 44 45 44 45 46
117 111 134 179 185 221 180 59 56 83 150 5 88 138 226 252 84 75 67 64 57 49 43 38 35 38 41 48 56 54 52 53 52 50 47 46 44 41 38 34 34 36 36 39 39 40 38 38 44
90 92 189 197 185 199 121 79 30 46 93 36 38 130 196 120 103 85 65 51 45 41 33 31 32 32 36 45 49 51 50 45 45 43 43 43 41 39 36 33 33 33 31 31 34 34 32 33 38
87 156 208 204 177 162 82 106 156 80 50 26 22 26 63 104 108 102 90 69 41 20 19 24 28 28 33 38 41 44 43 39 39 39 39 40 40 38 35 33 32 31 31 31 32 34 30 27 30
107 168 182 4 100 127 106 40 44 133 254 218 206 181 103 97 94 98 90 78 31 8 13 10 19 28 31 28 34 34 38 37 36 37 35 39 39 37 33 31 27 27 28 31 29 31 30 29 28
103 8 94 336 15 49 105 87 28 98 223 216 157 139 112 94 93 104 93 51 34 33 16 7 19 28 28 34 35 28 29 32 30 30 33 35 31 28 25 26 21 25 27 28 28 30 31 28 27
110 52 24 47 53 66 74 41 139 351 343 66 88 92 106 110 87 76 89 74 55 34 12 3 20 28 27 33 35 30 22 28 30 34 31 32 29 21 18 15 20 21 24 26 24 24 27 27 23
116 88 18 3 29 33 85 321 89 283 48 78 84 91 114 120 102 68 58 54 39 23 6 10 27 27 34 35 35 32 25 29 33 29 25 28 27 18 15 13 14 13 13 18 25 20 20 19 24
87 59 15 352 8 36 78 353 255 230 104 83 78 104 96 88 81 76 56 56 37 12 5 16 38 33 36 35 34 34 32 35 31 25 25 26 25 16 12 13 12 3 2 14 31 33 34 21 15
60 66 347 310 24 7 100 257 252 181 137 172 246 174 116 55 59 43 33 44 35 24 18 17 28 33 34 32 32 31 35 35 29 25 25 21 20 18 15 15 9 2 7 18 23 32 24 14 3
46 172 243 290 358 57 161 250 249 220 185 229 243 227 195 135 20 17 15 29 37 30 25 28 29 33 29 30 31 33 36 34 26 25 23 14 12 13 12 7 6 9 18 18 14 18 20 16 1
219 218 244 255 300 25 250 261 271 256 224 234 238 242 228 217 275 331 24 26 39 34 31 38 32 31 25 27 32 31 34 27 24 22 19 14 11 11 12 9 6 15 21 16 15 14 19 20 355
176 191 249 264 289 297 255 265 264 260 238 234 233 229 230 240 269 31 45 38 42 32 26 23 26 17 25 20 15 11 356 349 7 12 16 13 9 9 11 7 5 10 15 3 1 6 24 9 352
146 232 270 299 330 287 280 277 263 239 229 223 220 220 222 244 330 8 17 28 27 22 12 15 15 10 14 8 326 305 307 315 339 358 6 8 6 7 8 4 358 2 13 13 8 8 10 346 358
233 216 243 274 327 358 326 299 262 261 243 248 228 217 211 209 226 261 316 334 4 359 351 351 358 3 3 11 16 18 19 3 356 350 349 354 359 4 4 2 0 358 18 4 348 354 359 299 326
245 249 240 265 315 293 40 285 274 258 269 246 237 220 215 217 232 271 272 295 297 305 319 340 356 3 3 25 40 44 14 334 314 315 316 335 349 357 357 3 3 356 356 337 319 349 320 278 292
202 17 358 284 202 303 286 233 282 286 262 252 239 232 233 230 229 255 260 253 283 302 313 320 344 1 10 24 27 38 352 318 312 319 324 326 336 348 351 355 357 347 338 322 317 326 327 290 276
142 55 34 36 66 273 233 201 276 241 232 248 242 235 238 244 248 258 276 307 344 347 349 344 358 358 7 14 358 334 314 317 330 331 321 322 322 323 335 340 337 329 319 302 299 299 304 288 296
85 89 15 346 336 255 221 217 251 251 236 228 240 238 240 240 239 253 259 318 337 343 345 345 353 349 350 350 333 312 302 299 299 305 301 309 315 312 309 317 310 307 303 294 291 278 292 294 294
172 145 164 218 247 280 255 237 253 257 273 270 246 218 222 235 253 252 244 255 304 324 330 333 339 334 332 328 316 306 301 291 286 291 293 296 296 292 298 303 303 305 305 298 279 263 270 287 281
140 162 164 143 248 283 269 279 295 230 282 299 289 201 237 258 267 260 265 279 283 297 303 301 316 323 323 318 316 303 300 299 301 302 302 296 295 300 305 303 296 293 296 283 261 263 272 267 266
128 142 115 136 191 271 290 276 261 264 257 260 251 242 256 277 275 274 274 279 284 285 298 307 300 294 301 305 305 313 303 297 298 299 294 291 294 300 299 298 298 293 289 278 256 259 262 256 265
119 123 130 138 170 192 275 276 239 233 242 239 246 240 241 248 252 258 262 270 286 304 311 319 316 311 311 309 307 311 305 300 298 289 284 286 292 296 291 286 289 290 283 273 259 257 253 248 262
189 182 157 174 226 201 226 271 277 234 258 245 254 254 259 251 253 255 259 277 307 313 317 313 310 305 304 303 301 298 301 301 297 292 290 292 290 292 287 286 282 283 282 277 262 265 258 247 253
Height
1497 1498 1499 1501 1506 1520 1522 1518 1515 1514 1514 1514 1513 1513 1514 1517 1519 1524 1520 1518 1518 1519 1520 1521 1521 1522 1522 1522 1523 1523 1522 1522 1522 1522 1523 1523 1523 1523 1523 1523 1524 1524 1525 1526 1526 1527 1527 1528 1528
1497 1499 1501 1502 1514 1526 1523 1516 1515 1513 1513 1513 1513 1514 1515 1516 1517 1518 1517 1518 1519 1519 1520 1521 1521 1522 1522 1522 1523 1523 1523 1522 1522 1522 1523 1523 1523 1523 1523 1523 1524 1525 1525 1525 1526 1527 1527 1528 1528
1498 1499 1501 1506 1518 1523 1518 1513 1513 1513 1513 1513 1514 1515 1516 1517 1518 1518 1518 1518 1519 1519 1520 1521 1521 1522 1522 1522 1523 1523 1523 1522 1522 1522 1523 1523 1523 1523 1523 1523 1524 1524 1525 1525 1526 1526 1527 1527 1528
1498 1500 1503 1512 1517 1517 1514 1512 1512 1512 1513 1513 1514 1516 1517 1519 1518 1518 1518 1518 1519 1519 1520 1520 1521 1521 1522 1522 1522 1522 1522 1522 1522 1522 1522 1523 1522 1522 1523 1523 1523 1524 1524 1525 1525 1526 1526 1527 1527
1498 1500 1509 1518 1516 1514 1512 1511 1512 1512 1513 1514 1515 1516 1517 1519 1518 1518 1518 1519 1519 1519 1520 1520 1521 1521 1522 1522 1522 1522 1522 1522 1522 1522 1522 1522 1522 1522 1522 1522 1523 1523 1523 1524 1524 1525 1526 1526 1527
1499 1501 1515 1519 1516 1513 1512 1511 1511 1512 1513 1514 1515 1516 1517 1518 1518 1518 1518 1519 1519 1520 1520 1520 1521 1521 1521 1522 1522 1522 1522 1522 1522 1522 1522 1521 1522 1522 1522 1522 1522 1522 1523 1523 1524 1524 1525 1525 1526
1500 1506 1513 1515 1515 1513 1512 1511 1512 1512 1513 1515 1515 1516 1517 1518 1518 1518 1519 1519 1519 1520 1520 1520 1520 1521 1521 1521 1521 1521 1521 1521 1521 1521 1521 1521 1521 1521 1521 1521 1521 1522 1522 1522 1522 1523 1523 1524 1524
1499 1506 1512 1515 1514 1512 1511 1511 1512 1513 1514 1515 1515 1516 1516 1517 1518 1518 1519 1519 1519 1520 1520 1520 1520 1520 1520 1520 1520 1520 1520 1520 1520 1520 1520 1520 1520 1520 1520 1520 1520 1520 1521 1521 1521 1521 1522 1522 1523
1499 1509 1513 1512 1511 1511 1510 1511 1512 1513 1514 1514 1515 1516 1516 1516 1517 1518 1518 1518 1519 1519 1519 1519 1520 1520 1519 1520 1520 1520 1520 1519 1519 1519 1519 1519 1519 1519 1519 1519 1519 1519 1519 1519 1519 1520 1520 1520 1521
1500 1510 1508 1507 1507 1508 1509 1510 1512 1513 1513 1514 1515 1515 1515 1515 1516 1516 1516 1517 1517 1518 1518 1518 1519 1518 1518 1518 1518 1518 1518 1518 1518 1518 1517 1517 1517 1517 1517 1517 1517 1517 1517 1518 1518 1518 1518 1518 1518
1501 1506 1506 1506 1507 1508 1509 1510 1511 1512 1513 1514 1514 1514 1514 1514 1515 1515 1515 1516 1516 1517 1517 1517 1517 1517 1517 1517 1517 1517 1517 1517 1516 1516 1516 1516 1516 1516 1516 1516 1516 1516 1516 1516 1516 1516 1516 1516 1516
1503 1505 1506 1506 1507 1508 1509 1510 1511 1511 1512 1513 1513 1513 1513 1513 1514 1514 1514 1515 1515 1516 1516 1516 1516 1516 1516 1516 1516 1515 1515 1515 1514 1514 1514 1514 1514 1514 1514 1514 1514 1513 1513 1513 1513 1513 1513 1513 1514
1504 1506 1506 1507 1507 1508 1509 1510 1511 1511 1512 1512 1512 1512 1512 1513 1513 1513 1514 1514 1514 1514 1515 1515 1515 1515 1514 1514 1514 1513 1513 1513 1513 1513 1512 1512 1512 1512 1512 1512 1512 1511 1511 1511 1511 1511 1511 1511 1511
1505 1506 1507 1507 1507 1508 1509 1510 1511 1511 1512 1512 1511 1512 1512 1512 1512 1512 1512 1513 1513 1513 1513 1513 1513 1513 1513 1512 1512 1512 1511 1511 1511 1511 1510 1510 1510 1509 1509 1509 1509 1509 1509 1509 1509 1509 1509 1509 1509
1505 1507 1508 1508 1507 1509 1509 1511 1512 1511 1511 1511 1511 1511 1511 1512 1511 1511 1512 1512 1512 1512 1512 1512 1511 1511 1511 1511 1510 1510 1510 1509 1509 1508 1508 1507 1507 1507 1507 1506 1506 1506 1506 1506 1506 1506 1506 1506 1506
1506 1510 1512 1509 1508 1509 1513 1513 1511 1511 1510 1510 1510 1510 1510 1511 1510 1511 1511 1511 1511 1511 1510 1510 1510 1509 1509 1509 1509 1508 1508 1507 1507 1506 1506 1505 1505 1504 1504 1504 1503 1503 1504 1504 1503 1503 1503 1503 1504
1511 1514 1513 1511 1509 1509 1511 1511 1510 1510 1510 1509 1509 1509 1509 1509 1509 1509 1509 1509 1509 1509 1509 1508 1508 1508 1507 1507 1507 1506 1506 1505 1505 1504 1504 1503 1503 1502 1501 1501 1500 1501 1501 1501 1501 1501 1501 1500 1501
1513 1514 1513 1513 1510 1510 1511 1510 1509 1508 1508 1508 1507 1507 1507 1507 1508 1508 1508 1508 1508 1508 1507 1507 1506 1506 1505 1505 1505 1505 1504 1504 1503 1502 1501 1501 1500 1500 1499 1498 1498 1498 1498 1498 1498 1498 1498 1498 1498
1510 1513 1514 1512 1510 1511 1511 1509 1507 1506 1506 1506 1505 1506 1506 1506 1506 1506 1506 1507 1506 1506 1506 1505 1504 1504 1504 1503 1503 1502 1502 1501 1501 1500 1499 1498 1498 1497 1496 1496 1496 1495 1495 1495 1495 1496 1496 1496 1496
1511 1514 1515 1513 1510 1511 1511 1509 1505 1504 1504 1503 1503 1503 1504 1504 1504 1504 1505 1505 1505 1504 1504 1503 1503 1502 1502 1501 1501 1500 1500 1499 1499 1498 1497 1497 1496 1495 1494 1494 1493 1493 1493 1493 1493 1493 1493 1493 1494
1511 1514 1514 1513 1512 1511 1512 1508 1505 1502 1502 1502 1502 1502 1502 1502 1502 1502 1503 1503 1503 1502 1502 1502 1501 1500 1500 1500 1499 1498 1498 1497 1496 1495 1495 1494 1494 1493 1492 1491 1491 1490 1490 1490 1491 1491 1491 1491 1491
1511 1511 1511 1512 1515 1518 1516 1516 1505 1502 1502 1500 1500 1500 1500 1500 1501 1501 1501 1501 1500 1500 1500 1500 1499 1499 1498 1497 1497 1496 1495 1494 1493 1493 1492 1492 1492 1491 1490 1490 1489 1488 1488 1488 1488 1488 1489 1489 1488
1511 1511 1512 1513 1516 1520 1519 1520 1507 1503 1500 1498 1497 1497 1498 1498 1499 1499 1499 1499 1499 1498 1498 1497 1497 1496 1496 1495 1495 1494 1493 1492 1491 1491 1490 1490 1489 1488 1488 1487 1487 1486 1486 1485 1485 1486 1486 1486 1486
1510 1513 1515 1519 1521 1521 1518 1520 1509 1502 1497 1495 1494 1495 1495 1496 1496 1497 1497 1497 1496 1496 1496 1495 1494 1494 1494 1493 1493 1492 1491 1490 1489 1488 1487 1487 1486 1485 1485 1485 1484 1484 1483 1483 1483 1483 1483 1483 1483
1511 1518 1525 1523 1529 1522 1517 1516 1506 1495 1493 1492 1492 1492 1493 1494 1494 1494 1494 1494 1494 1494 1493 1493 1492 1491 1491 1491 1490 1489 1488 1487 1487 1486 1485 1484 1483 1482 1482 1482 1481 1481 1480 1480 1480 1480 1480 1480 1480
1513 1515 1523 1523 1525 1521 1517 1514 1499 1492 1491 1490 1490 1491 1491 1492 1492 1492 1492 1492 1492 1492 1491 1490 1490 1489 1488 1488 1487 1487 1486 1485 1484 1483 1482 1481 1480 1479 1479 1479 1478 1478 1478 1478 1477 1477 1477 1477 1477
1512 1516 1518 1526 1531 1528 1516 1510 1497 1491 1490 1490 1490 1490 1490 1490 1490 1490 1491 1491 1490 1490 1489 1489 1488 1487 1486 1485 1485 1484 1483 1482 1481 1480 1479 1478 1478 1477 1476 1475 1475 1475 1474 1474 1474 1474 1474 1474 1475
1510 1514 1522 1525 1524 1520 1513 1509 1499 1491 1489 1489 1489 1488 1488 1488 1488 1488 1489 1489 1489 1488 1487 1486 1485 1484 1484 1483 1482 1481 1480 1479 1478 1477 1476 1475 1474 1474 1473 1472 1472 1471 1471 1471 1471 1471 1471 1471 1472
1513 1515 1517 1523 1523 1522 1520 1503 1491 1488 1487 1487 1487 1486 1486 1486 1486 1486 1486 1487 1486 1486 1485 1484 1483 1482 1481 1480 1479 1478 1477 1476 1475 1474 1473 1472 1471 1470 1469 1468 1468 1468 1468 1468 1468 1468 1468 1468 1468
1510 1511 1515 1518 1521 1525 1521 1504 1487 1486 1485 1485 1485 1485 1485 1485 1485 1485 1485 1484 1484 1483 1482 1481 1480 1479 1478 1477 1476 1475 1474 1473 1472 1471 1470 1469 1468 1467 1466 1465 1465 1464 1464 1464 1464 1465 1465 1465 1465